Wind_Speed
15 14 12 10 9 9 7 5 3 2 2 3 5 6 6 7 9 9 10 10 10 10 10 10 10 11 10 10 9 9 9 9 9 8 8 8 8 8 7 6 6 4 3 3
18 17 15 14 12 11 9 6 4 3 2 1 2 3 4 4 6 7 8 8 8 8 8 9 9 9 9 9 9 9 9 8 8 8 7 7 7 7 7 6 5 4 3 3
19 18 18 16 14 13 11 9 7 5 3 2 1 2 2 2 3 5 5 6 6 7 6 6 7 8 8 8 8 8 8 8 8 7 7 7 6 6 6 5 5 5 3 3
23 22 21 19 17 15 13 12 11 8 5 5 3 3 4 3 2 3 3 4 4 5 4 4 4 5 6 6 6 7 7 7 7 7 7 7 7 7 6 6 6 5 5 4
25 24 23 21 19 18 16 15 13 11 9 7 7 4 5 5 3 3 2 3 3 3 3 3 3 3 4 4 5 5 6 6 7 7 7 6 7 6 6 7 6 6 6 5
27 26 25 23 22 20 18 17 15 12 10 10 9 7 7 7 5 4 3 3 3 3 3 3 3 2 2 3 3 4 5 5 6 7 7 6 6 6 6 7 7 7 7 6
28 27 27 26 24 23 21 18 15 13 13 13 12 10 9 8 7 6 5 5 5 4 3 3 3 3 2 2 2 3 4 5 5 6 6 7 6 6 6 7 7 7 7 7
28 28 28 28 27 25 23 21 19 16 14 14 15 13 10 9 8 7 7 7 6 5 4 4 3 3 3 3 3 3 3 4 5 5 6 7 7 7 7 7 7 7 8 8
28 28 28 29 28 27 26 25 21 18 17 15 16 15 12 10 9 9 9 8 8 7 6 6 5 4 4 4 4 5 5 5 5 6 6 7 8 8 8 8 8 8 8 8
29 28 29 29 29 29 28 25 24 21 19 18 17 16 13 12 11 11 11 10 9 9 8 7 7 6 6 6 6 7 7 7 6 6 7 8 8 9 9 8 8 9 9 10
30 29 29 30 31 30 29 28 26 24 22 20 18 17 16 14 12 11 11 11 11 10 9 9 8 8 8 8 8 8 8 8 7 7 8 8 9 10 10 11 10 10 11 11
31 31 30 30 31 31 30 29 28 26 25 23 20 19 19 16 14 13 12 12 12 11 11 10 10 10 10 10 10 10 10 10 9 9 10 10 11 12 12 12 12 12 12 13
33 33 32 31 32 32 32 31 30 27 25 24 22 20 20 19 17 16 15 15 15 14 13 12 12 12 12 12 12 12 12 12 12 11 11 12 13 13 13 14 14 14 14 14
35 34 33 32 30 31 32 32 31 29 28 26 25 22 22 21 19 19 18 18 18 17 15 14 15 15 15 15 14 14 14 14 14 14 14 14 15 16 16 16 16 15 16 16
36 35 34 33 32 32 33 32 32 32 30 28 26 24 23 21 21 21 21 20 20 18 17 17 17 17 18 17 16 16 16 16 17 16 16 16 17 18 18 18 18 17 17 17
36 36 35 34 33 33 33 33 33 33 32 31 29 27 25 23 22 22 22 22 21 21 20 19 19 20 20 19 19 19 19 19 19 19 19 19 19 20 20 20 20 19 19 19
36 35 35 34 34 34 35 34 33 33 32 31 30 28 26 25 25 24 24 23 23 23 22 22 21 21 21 22 22 21 21 21 21 22 22 22 22 22 22 21 22 21 21 21
38 37 36 35 36 36 35 34 33 33 33 32 31 29 29 28 27 26 25 25 24 23 23 23 22 23 23 23 24 23 24 24 24 25 25 25 25 24 24 24 24 24 23 22
40 39 38 37 37 37 38 35 34 34 34 33 32 31 30 30 29 28 27 27 25 25 25 25 25 25 25 25 26 27 27 27 27 27 28 27 28 28 27 27 27 26 25 24
40 40 40 40 38 37 37 37 35 35 36 34 33 32 32 31 31 29 28 28 27 27 27 27 27 27 27 27 28 29 29 29 30 30 30 30 30 30 30 30 29 28 28 27
40 40 40 40 40 39 39 36 35 36 36 34 33 32 32 31 31 29 29 29 29 30 29 28 29 29 28 28 29 30 31 31 31 31 31 31 31 31 31 30 30 30 30 29
39 39 40 40 40 40 39 37 37 36 35 33 33 33 33 33 32 31 30 31 30 31 31 31 31 31 31 31 32 32 33 32 32 32 33 33 33 33 32 32 31 31 31 31
39 39 39 40 39 39 38 37 37 36 36 35 34 33 34 33 33 32 32 32 32 32 32 33 32 33 33 33 33 33 33 34 34 33 33 34 34 34 33 33 33 34 34 33
39 38 39 39 38 38 37 36 36 35 34 34 34 33 33 32 32 33 34 34 34 34 34 35 34 34 34 35 34 34 34 35 34 34 34 34 35 35 35 36 37 36 34 33
39 38 38 38 38 37 37 35 34 34 34 33 33 33 33 33 33 34 34 35 36 36 36 36 36 36 36 35 35 36 37 36 34 34 35 36 36 37 37 36 36 35 35 35
38 38 38 37 36 36 36 35 34 33 33 33 33 33 33 33 34 35 35 35 36 36 37 37 37 36 36 37 36 36 36 36 35 36 37 37 37 38 37 36 36 36 35 35
Wind_Direction
212 210 210 211 206 202 200 193 197 173 98 69 60 56 52 55 51 48 48 50 52 58 64 64 63 63 64 67 73 77 77 77 79 80 79 80 80 80 83 86 89 90 80 76
216 216 216 215 214 210 209 208 219 225 202 130 49 44 38 51 52 46 43 44 45 49 58 63 62 61 62 66 69 73 75 73 72 71 70 71 74 74 74 74 68 71 59 46
217 221 221 220 219 218 216 219 225 236 233 238 297 352 353 9 37 40 34 34 38 38 47 56 57 57 59 65 70 71 71 70 67 64 62 62 64 63 59 56 49 46 45 37
220 222 222 221 222 224 224 228 229 232 246 273 270 286 303 302 344 6 15 17 22 24 29 39 49 53 52 54 62 66 63 61 57 53 52 52 54 52 46 41 35 31 35 31
224 224 223 224 225 226 227 232 233 238 245 254 266 258 273 279 293 316 329 346 354 358 5 8 20 34 38 40 48 55 55 52 47 43 43 45 42 36 31 30 26 23 22 17
226 226 226 226 227 228 230 234 239 244 248 252 254 252 260 269 274 282 289 310 321 317 328 337 342 339 358 13 21 32 38 37 34 33 31 31 28 25 22 20 19 19 17 13
227 228 227 227 228 229 230 232 238 245 248 251 254 251 251 258 261 265 275 293 298 294 296 307 319 312 311 332 352 5 19 25 24 23 22 19 13 7 5 6 4 2 2 0
228 230 228 227 228 230 230 230 232 238 246 254 261 258 252 252 254 262 270 279 281 275 274 285 292 292 286 298 313 325 345 1 5 7 5 1 357 354 352 349 349 347 344 342
227 229 231 228 227 229 232 232 233 239 246 249 256 263 255 248 253 260 264 268 270 266 266 273 277 277 272 277 294 301 306 319 328 336 341 344 345 342 343 343 342 339 336 333
226 228 231 230 228 229 231 233 233 233 240 246 254 259 256 249 252 256 257 258 261 263 266 267 268 265 266 271 281 291 296 296 305 316 326 329 332 336 336 337 342 344 341 334
226 229 231 230 228 230 231 232 235 236 238 242 249 256 257 256 252 250 254 257 261 265 267 266 261 261 267 272 279 283 291 291 294 299 310 316 318 321 327 330 331 333 332 330
227 228 231 232 231 230 232 233 234 236 241 244 245 252 257 255 250 248 252 257 262 267 268 266 261 263 266 270 276 280 283 287 291 296 299 303 311 313 314 315 318 321 322 323
226 228 229 231 232 231 231 233 235 236 241 244 246 250 255 254 252 251 252 255 261 266 269 265 260 263 263 267 272 277 281 283 285 289 293 297 302 305 305 307 311 312 313 313
228 230 229 230 234 235 233 234 235 237 239 243 246 246 251 253 252 251 251 254 259 263 264 263 260 261 261 264 268 274 276 281 282 283 286 291 296 299 301 302 305 304 306 307
228 231 231 231 233 235 236 236 236 237 239 242 245 248 248 251 253 252 251 252 254 256 259 259 257 259 262 264 268 270 272 278 280 280 281 285 290 294 296 299 300 299 300 301
228 231 232 233 233 235 237 237 237 239 240 242 243 245 246 248 249 250 251 251 252 254 255 258 257 260 263 266 267 270 272 276 279 278 278 281 286 289 290 293 296 294 295 296
229 230 233 235 235 237 238 236 238 241 242 243 244 245 246 248 248 250 250 251 251 253 255 257 258 260 263 263 266 270 272 275 277 278 278 279 281 284 286 290 292 290 291 293
230 231 233 234 235 236 238 238 238 241 243 244 246 248 248 248 248 248 249 250 251 251 253 254 255 257 261 264 266 269 273 274 275 277 277 278 278 281 283 286 287 287 289 291
231 232 234 235 237 239 240 240 240 242 244 245 247 247 249 248 247 246 247 248 249 251 251 253 255 257 260 264 266 272 275 275 274 275 276 277 277 280 281 282 283 285 288 288
232 233 235 236 237 239 242 243 242 243 245 244 246 248 248 248 247 247 247 248 251 252 253 254 257 259 262 264 267 271 273 274 275 275 274 275 275 278 279 279 281 282 283 284
231 232 234 236 238 240 242 243 243 243 245 246 247 247 247 248 248 249 247 247 250 253 256 257 258 260 262 264 267 269 272 272 275 274 272 275 274 277 278 279 279 280 283 283
231 232 233 235 237 239 241 242 242 244 244 245 247 247 247 248 248 248 248 248 251 254 255 256 257 258 261 265 267 269 270 272 272 273 273 272 274 276 277 279 278 277 278 281
231 232 233 235 237 240 242 244 243 244 245 245 246 246 246 247 248 248 248 251 253 255 256 257 259 261 264 266 268 270 271 272 273 274 274 273 275 276 277 279 279 278 279 278
232 233 234 235 237 239 241 242 242 243 244 245 245 245 245 244 245 248 250 252 254 255 257 259 261 263 264 266 269 270 272 273 272 272 275 277 276 278 279 278 279 279 279 279
231 232 234 236 238 239 240 242 242 243 243 243 243 244 245 245 246 248 250 252 253 254 256 259 261 263 264 265 267 270 271 272 273 275 276 277 278 278 278 278 279 281 282 281
231 232 234 235 236 238 239 240 240 241 242 243 243 244 244 245 246 248 250 252 254 256 257 259 263 265 266 266 267 269 271 272 274 275 276 276 277 276 277 278 278 279 280 281
Height
5915 5918 5920 5922 5924 5925 5926 5926 5927 5926 5925 5925 5924 5924 5922 5921 5920 5918 5917 5916 5915 5914 5913 5911 5910 5909 5908 5907 5906 5905 5904 5904 5903 5902 5902 5901 5900 5900 5899 5899 5898 5898 5897 5897
5913 5915 5918 5919 5921 5922 5924 5925 5926 5926 5925 5925 5925 5924 5923 5922 5921 5920 5919 5918 5917 5916 5915 5914 5913 5911 5910 5909 5908 5907 5906 5906 5905 5904 5903 5903 5902 5901 5900 5900 5899 5898 5898 5897
5910 5914 5915 5916 5918 5920 5922 5924 5925 5925 5925 5925 5925 5925 5924 5923 5922 5921 5920 5919 5918 5917 5916 5915 5915 5913 5912 5911 5910 5909 5909 5908 5907 5906 5905 5904 5903 5902 5902 5901 5900 5899 5898 5897
5906 5908 5911 5913 5916 5918 5920 5921 5923 5924 5924 5925 5925 5927 5925 5923 5922 5922 5921 5920 5919 5918 5917 5917 5916 5915 5914 5913 5912 5911 5910 5909 5908 5907 5906 5905 5904 5904 5903 5902 5901 5900 5899 5898
5901 5904 5907 5910 5913 5915 5917 5919 5920 5921 5922 5924 5924 5925 5926 5923 5922 5922 5921 5920 5920 5919 5918 5917 5916 5916 5915 5914 5913 5912 5912 5911 5909 5908 5907 5906 5905 5904 5903 5902 5901 5900 5899 5898
5897 5900 5903 5906 5909 5911 5913 5916 5917 5918 5920 5921 5922 5923 5924 5922 5922 5921 5921 5920 5919 5919 5918 5917 5917 5916 5915 5915 5914 5913 5912 5911 5910 5909 5908 5907 5906 5904 5903 5902 5901 5900 5899 5898
5892 5895 5898 5901 5904 5907 5910 5913 5916 5917 5918 5919 5919 5919 5921 5920 5920 5920 5919 5919 5918 5918 5917 5917 5916 5916 5915 5915 5914 5913 5913 5912 5911 5910 5909 5907 5905 5904 5903 5902 5901 5900 5899 5897
5887 5890 5893 5896 5900 5903 5905 5910 5913 5916 5917 5917 5915 5916 5919 5917 5917 5917 5918 5917 5917 5916 5916 5916 5915 5915 5914 5914 5914 5913 5913 5912 5911 5910 5909 5907 5905 5904 5903 5902 5901 5900 5898 5897
5882 5886 5888 5891 5895 5898 5901 5904 5908 5911 5912 5913 5914 5913 5914 5914 5915 5915 5915 5915 5915 5915 5914 5914 5914 5914 5913 5913 5913 5913 5912 5911 5910 5909 5908 5907 5905 5904 5902 5901 5899 5898 5897 5896
5876 5880 5882 5885 5889 5892 5896 5899 5902 5905 5907 5909 5910 5910 5911 5911 5912 5913 5913 5913 5912 5912 5912 5912 5912 5912 5912 5912 5912 5911 5911 5910 5909 5908 5907 5906 5904 5902 5901 5899 5898 5897 5896 5894
5870 5874 5877 5879 5882 5886 5889 5893 5895 5899 5902 5904 5907 5909 5907 5908 5908 5909 5909 5909 5910 5910 5910 5910 5910 5910 5910 5910 5910 5909 5909 5908 5908 5907 5906 5904 5903 5901 5899 5898 5897 5896 5894 5893
5863 5867 5870 5873 5876 5879 5883 5886 5889 5893 5895 5897 5901 5906 5902 5903 5904 5905 5906 5906 5906 5906 5907 5907 5907 5907 5907 5907 5907 5907 5906 5906 5905 5904 5904 5902 5901 5899 5898 5896 5895 5894 5892 5890
5855 5859 5863 5867 5871 5873 5876 5879 5883 5887 5890 5891 5895 5901 5897 5898 5899 5901 5902 5903 5903 5903 5903 5903 5904 5904 5904 5904 5904 5904 5904 5903 5902 5902 5901 5899 5898 5897 5895 5894 5892 5891 5889 5888
5848 5852 5857 5861 5864 5866 5869 5872 5876 5880 5882 5885 5888 5892 5892 5893 5895 5896 5897 5898 5899 5899 5899 5899 5900 5900 5900 5900 5900 5900 5900 5899 5899 5898 5897 5896 5895 5893 5892 5890 5889 5888 5886 5884
5839 5844 5848 5853 5856 5859 5862 5865 5868 5871 5875 5879 5882 5884 5886 5887 5889 5891 5892 5893 5894 5894 5895 5895 5896 5896 5896 5896 5896 5896 5896 5895 5895 5894 5893 5892 5891 5889 5888 5886 5885 5883 5881 5880
5831 5836 5840 5844 5848 5851 5854 5857 5861 5864 5867 5871 5874 5877 5879 5881 5883 5884 5885 5887 5888 5889 5890 5890 5891 5891 5891 5891 5891 5891 5891 5891 5890 5889 5888 5887 5886 5885 5883 5881 5879 5878 5876 5875
5823 5828 5833 5836 5840 5842 5845 5850 5853 5856 5859 5863 5866 5870 5872 5874 5875 5878 5879 5881 5882 5883 5884 5885 5885 5886 5886 5886 5886 5886 5886 5885 5885 5884 5883 5882 5880 5879 5877 5875 5874 5872 5871 5869
5815 5819 5824 5828 5831 5833 5840 5842 5846 5849 5852 5855 5858 5862 5864 5866 5868 5870 5872 5874 5875 5877 5878 5878 5879 5880 5880 5880 5879 5879 5879 5879 5879 5878 5877 5876 5874 5873 5872 5870 5868 5867 5865 5864
5806 5810 5815 5819 5822 5826 5830 5834 5838 5841 5844 5848 5850 5854 5856 5858 5860 5862 5865 5866 5868 5869 5871 5872 5873 5873 5873 5873 5873 5872 5873 5872 5871 5871 5870 5869 5868 5866 5865 5864 5862 5860 5859 5858
5796 5801 5806 5810 5814 5818 5822 5825 5829 5834 5835 5840 5842 5845 5848 5850 5853 5855 5857 5859 5860 5862 5864 5865 5865 5866 5866 5866 5866 5866 5865 5864 5863 5862 5861 5861 5859 5858 5857 5856 5855 5853 5852 5850
5786 5790 5795 5800 5804 5809 5812 5816 5821 5825 5828 5831 5833 5836 5839 5841 5844 5846 5848 5850 5852 5854 5855 5857 5857 5858 5858 5858 5858 5857 5857 5856 5855 5854 5853 5852 5850 5850 5849 5847 5846 5845 5844 5842
5776 5782 5786 5790 5795 5801 5803 5807 5811 5814 5818 5821 5824 5827 5830 5832 5834 5837 5839 5842 5843 5845 5847 5848 5849 5849 5850 5850 5850 5849 5848 5848 5847 5846 5845 5843 5842 5841 5840 5839 5837 5836 5835 5833
5767 5772 5776 5781 5787 5790 5793 5797 5801 5804 5808 5811 5814 5818 5820 5823 5826 5828 5831 5833 5835 5836 5838 5839 5840 5840 5840 5840 5840 5840 5839 5839 5838 5837 5836 5835 5834 5832 5831 5829 5828 5827 5826 5824
5757 5762 5767 5771 5775 5780 5784 5787 5791 5795 5799 5802 5805 5808 5811 5814 5817 5819 5821 5823 5825 5827 5828 5829 5830 5830 5831 5831 5830 5830 5830 5829 5828 5828 5827 5826 5824 5823 5821 5820 5819 5817 5816 5815
5747 5752 5757 5761 5766 5770 5774 5778 5782 5785 5789 5792 5795 5798 5801 5804 5807 5809 5812 5813 5815 5816 5818 5819 5819 5820 5820 5820 5820 5819 5819 5819 5818 5818 5817 5816 5814 5813 5812 5810 5809 5808 5806 5805
5739 5743 5748 5752 5757 5761 5765 5769 5773 5776 5779 5782 5785 5788 5791 5794 5797 5800 5801 5803 5805 5806 5807 5808 5809 5809 5809 5810 5810 5810 5809 5809 5808 5807 5806 5805 5803 5802 5801 5800 5799 5797 5796 5795